Time,TemperatureF,DewpointF,PressureIn,WindDirection,WindDirectionDegrees,WindSpeedMPH,WindSpeedGustMPH,Humidity,HourlyPrecipIn,Conditions,Clouds,dailyrainin,SoftwareType,DateUTC
2013-01-16 00:02:00,20.0,14.0,-100.00,SSW,205,15.0,25.0,80,0.00,,,0.00,,2013-01-16 06:02:00,
2013-01-16 00:12:00,20.0,16.0,-100.00,SSW,205,16.0,21.0,82,0.00,,,0.00,,2013-01-16 06:12:00,
2013-01-16 00:22:00,20.0,16.0,-100.00,SSW,205,15.0,20.0,84,0.00,,,0.00,,2013-01-16 06:22:00,
2013-01-16 00:32:00,20.0,18.0,-100.00,SSW,200,16.0,23.0,86,0.00,,,0.00,,2013-01-16 06:32:00,
2013-01-16 00:42:00,20.0,18.0,-100.00,SSW,205,13.0,24.0,86,0.00,,,0.00,,2013-01-16 06:42:00,
2013-01-16 00:52:00,21.0,18.0,-100.00,SSW,210,14.0,22.0,87,0.00,,,0.00,,2013-01-16 06:52:00,
2013-01-16 01:02:00,21.0,18.0,-100.00,SSW,210,19.0,23.0,87,0.00,,,0.00,,2013-01-16 07:02:00,
2013-01-16 01:12:00,21.0,18.0,-100.00,SW,215,19.0,24.0,87,0.00,,,0.00,,2013-01-16 07:12:00,
2013-01-16 01:22:00,21.0,18.0,-100.00,SSW,210,13.0,19.0,89,0.00,,,0.00,,2013-01-16 07:22:00,
2013-01-16 01:32:00,22.0,19.0,-100.00,SW,215,15.0,20.0,89,0.00,,,0.00,,2013-01-16 07:32:00,
2013-01-16 01:42:00,22.0,19.0,-100.00,SW,220,13.0,20.0,90,0.00,,,0.00,,2013-01-16 07:42:00,
2013-01-16 01:52:00,22.0,19.0,-100.00,SW,225,15.0,19.0,90,0.00,,,0.00,,2013-01-16 07:52:00,
2013-01-16 02:02:00,23.0,21.0,-100.00,SW,230,16.0,20.0,90,0.00,,,0.00,,2013-01-16 08:02:00,
2013-01-16 02:12:00,23.0,21.0,-100.00,SW,230,12.0,21.0,90,0.00,,,0.00,,2013-01-16 08:12:00,
2013-01-16 02:22:00,23.0,21.0,-100.00,WSW,240,12.0,21.0,91,0.00,,,0.00,,2013-01-16 08:22:00,
2013-01-16 02:32:00,23.0,21.0,-100.00,SW,235,12.0,16.0,91,0.00,,,0.00,,2013-01-16 08:32:00,
2013-01-16 02:42:00,23.0,21.0,-100.00,WSW,240,11.0,17.0,91,0.00,,,0.00,,2013-01-16 08:42:00,
2013-01-16 02:52:00,23.0,21.0,-100.00,WSW,240,11.0,16.0,91,0.00,,,0.00,,2013-01-16 08:52:00,
2013-01-16 03:02:00,24.0,21.0,-100.00,SW,230,13.0,17.0,91,0.00,,,0.00,,2013-01-16 09:02:00,
2013-01-16 03:11:00,24.0,21.0,-100.00,SW,230,10.0,15.0,92,0.00,,,0.00,,2013-01-16 09:11:00,
2013-01-16 03:22:00,24.0,23.0,-100.00,WSW,240,7.0,14.0,93,0.00,,,0.00,,2013-01-16 09:22:00,
2013-01-16 03:32:00,24.0,23.0,-100.00,West,260,9.0,14.0,93,0.00,,,0.00,,2013-01-16 09:32:00,
2013-01-16 03:42:00,24.0,23.0,-100.00,WSW,245,10.0,12.0,93,0.00,,,0.00,,2013-01-16 09:42:00,
2013-01-16 03:52:00,24.0,23.0,-100.00,West,265,9.0,14.0,94,0.00,,,0.00,,2013-01-16 09:52:00,
2013-01-16 04:02:00,24.0,23.0,-100.00,West,260,9.0,12.0,94,0.00,,,0.00,,2013-01-16 10:02:00,
2013-01-16 04:12:00,25.0,23.0,-100.00,WSW,255,10.0,14.0,94,0.00,,,0.00,,2013-01-16 10:12:00,
2013-01-16 04:22:00,25.0,23.0,-100.00,West,265,10.0,14.0,94,0.00,,,0.00,,2013-01-16 10:22:00,
2013-01-16 04:32:00,26.0,25.0,-100.00,West,265,10.0,16.0,94,0.00,,,0.00,,2013-01-16 10:32:00,
2013-01-16 04:42:00,26.0,25.0,-100.00,West,265,11.0,17.0,94,0.00,,,0.00,,2013-01-16 10:42:00,
2013-01-16 04:52:00,26.0,25.0,-100.00,West,260,11.0,15.0,94,0.00,,,0.00,,2013-01-16 10:52:00,
2013-01-16 05:02:00,27.0,25.0,-100.00,West,265,9.0,15.0,94,0.00,,,0.00,,2013-01-16 11:02:00,
2013-01-16 05:12:00,27.0,25.0,-100.00,West,270,7.0,15.0,94,0.00,,,0.00,,2013-01-16 11:12:00,
2013-01-16 05:22:00,27.0,25.0,-100.00,WNW,290,10.0,14.0,94,0.00,,,0.00,,2013-01-16 11:22:00,
2013-01-16 05:32:00,27.0,25.0,-100.00,West,280,11.0,17.0,92,0.00,,,0.00,,2013-01-16 11:32:00,
2013-01-16 05:42:00,27.0,23.0,-100.00,WNW,285,9.0,19.0,87,0.00,,,0.00,,2013-01-16 11:42:00,
2013-01-16 05:52:00,27.0,23.0,-100.00,WNW,295,7.0,21.0,84,0.00,,,0.00,,2013-01-16 11:52:00,
2013-01-16 06:03:00,26.0,21.0,-100.00,WNW,285,8.0,15.0,82,0.00,,,0.00,,2013-01-16 12:03:00,
2013-01-16 06:12:00,26.0,21.0,-100.00,NW,305,12.0,23.0,81,0.00,,,0.00,,2013-01-16 12:12:00,
2013-01-16 06:22:00,25.0,19.0,-100.00,WNW,300,12.0,19.0,80,0.00,,,0.00,,2013-01-16 12:22:00,
2013-01-16 06:33:00,24.0,19.0,-100.00,WNW,300,8.0,16.0,80,0.00,,,0.00,,2013-01-16 12:33:00,
2013-01-16 06:43:00,24.0,19.0,-100.00,NW,305,9.0,16.0,81,0.00,,,0.00,,2013-01-16 12:43:00,
2013-01-16 06:52:00,23.0,19.0,-100.00,WNW,285,8.0,17.0,82,0.00,,,0.00,,2013-01-16 12:52:00,
2013-01-16 07:02:00,23.0,19.0,-100.00,WNW,290,9.0,13.0,83,0.00,,,0.00,,2013-01-16 13:02:00,
2013-01-16 07:12:00,23.0,19.0,-100.00,NW,315,9.0,17.0,83,0.00,,,0.00,,2013-01-16 13:12:00,
2013-01-16 07:22:00,22.0,18.0,-100.00,NW,305,7.0,14.0,84,0.00,,,0.00,,2013-01-16 13:22:00,
2013-01-16 07:33:00,22.0,18.0,-100.00,NW,305,11.0,16.0,84,0.00,,,0.00,,2013-01-16 13:33:00,
2013-01-16 07:42:00,22.0,18.0,-100.00,NW,310,8.0,17.0,84,0.00,,,0.00,,2013-01-16 13:42:00,
2013-01-16 07:52:00,22.0,18.0,-100.00,NW,325,7.0,15.0,83,0.00,,,0.00,,2013-01-16 13:52:00,
2013-01-16 08:03:00,21.0,18.0,-100.00,NW,315,5.0,10.0,82,0.00,,,0.00,,2013-01-16 14:03:00,
2013-01-16 08:12:00,21.0,16.0,-100.00,WNW,300,6.0,9.0,82,0.00,,,0.00,,2013-01-16 14:12:00,
2013-01-16 08:22:00,21.0,16.0,-100.00,WNW,295,5.0,11.0,81,0.00,,,0.00,,2013-01-16 14:22:00,
2013-01-16 08:33:00,21.0,16.0,-100.00,WNW,290,6.0,11.0,81,0.00,,,0.00,,2013-01-16 14:33:00,
2013-01-16 08:42:00,20.0,16.0,-100.00,NNW,340,6.0,12.0,80,0.00,,,0.00,,2013-01-16 14:42:00,
2013-01-16 08:53:00,20.0,14.0,-100.00,NW,305,7.0,12.0,78,0.00,,,0.00,,2013-01-16 14:53:00,
2013-01-16 09:03:00,19.0,12.0,-100.00,NW,310,12.0,21.0,74,0.00,,,0.00,,2013-01-16 15:03:00,
2013-01-16 09:12:00,19.0,12.0,-100.00,WNW,295,7.0,21.0,72,0.00,,,0.00,,2013-01-16 15:12:00,
2013-01-16 09:22:00,19.0,10.0,-100.00,NW,325,6.0,16.0,70,0.00,,,0.00,,2013-01-16 15:22:00,
2013-01-16 09:33:00,19.0,10.0,-100.00,NW,320,6.0,11.0,70,0.00,,,0.00,,2013-01-16 15:33:00,
2013-01-16 09:43:00,19.0,10.0,-100.00,WNW,290,4.0,11.0,71,0.00,,,0.00,,2013-01-16 15:43:00,
2013-01-16 09:52:00,18.0,10.0,-100.00,WNW,300,8.0,12.0,71,0.00,,,0.00,,2013-01-16 15:52:00,
2013-01-16 10:03:00,17.0,9.0,-100.00,WNW,290,10.0,16.0,71,0.00,,,0.00,,2013-01-16 16:03:00,
2013-01-16 10:12:00,17.0,9.0,-100.00,West,280,7.0,15.0,71,0.00,,,0.00,,2013-01-16 16:12:00,
2013-01-16 10:22:00,17.0,9.0,-100.00,NW,310,6.0,14.0,69,0.00,,,0.00,,2013-01-16 16:22:00,
2013-01-16 10:32:00,17.0,7.0,-100.00,WNW,300,6.0,16.0,67,0.00,,,0.00,,2013-01-16 16:32:00,
2013-01-16 10:42:00,16.0,7.0,-100.00,NW,315,4.0,12.0,66,0.00,,,0.00,,2013-01-16 16:42:00,
2013-01-16 10:52:00,16.0,7.0,-100.00,WNW,300,6.0,12.0,64,0.00,,,0.00,,2013-01-16 16:52:00,
2013-01-16 11:03:00,16.0,5.0,-100.00,NW,310,6.0,11.0,60,0.00,,,0.00,,2013-01-16 17:03:00,
2013-01-16 11:12:00,17.0,5.0,-100.00,NW,315,4.0,11.0,59,0.00,,,0.00,,2013-01-16 17:12:00,
2013-01-16 11:22:00,16.0,3.0,-100.00,WNW,300,9.0,15.0,57,0.00,,,0.00,,2013-01-16 17:22:00,
2013-01-16 11:33:00,16.0,3.0,-100.00,NNW,335,6.0,14.0,55,0.00,,,0.00,,2013-01-16 17:33:00,
2013-01-16 11:43:00,16.0,3.0,-100.00,NW,315,4.0,10.0,53,0.00,,,0.00,,2013-01-16 17:43:00,
2013-01-16 11:53:00,16.0,1.0,-100.00,NW,310,9.0,15.0,51,0.00,,,0.00,,2013-01-16 17:53:00,
2013-01-16 12:02:00,17.0,1.0,-100.00,NW,305,6.0,12.0,50,0.00,,,0.00,,2013-01-16 18:02:00,
2013-01-16 12:12:00,17.0,1.0,-100.00,WNW,295,9.0,16.0,49,0.00,,,0.00,,2013-01-16 18:12:00,
2013-01-16 12:23:00,17.0,0.0,-100.00,NW,315,9.0,14.0,46,0.00,,,0.00,,2013-01-16 18:23:00,
2013-01-16 12:33:00,19.0,1.0,-100.00,West,265,9.0,12.0,44,0.00,,,0.00,,2013-01-16 18:33:00,
2013-01-16 12:42:00,17.0,0.0,-100.00,WNW,300,9.0,15.0,43,0.00,,,0.00,,2013-01-16 18:42:00,
2013-01-16 12:52:00,17.0,0.0,-100.00,WNW,300,7.0,14.0,43,0.00,,,0.00,,2013-01-16 18:52:00,
2013-01-16 13:03:00,17.0,0.0,-100.00,WNW,300,7.0,15.0,43,0.00,,,0.00,,2013-01-16 19:03:00,
2013-01-16 13:12:00,19.0,0.0,-100.00,NW,310,7.0,15.0,42,0.00,,,0.00,,2013-01-16 19:12:00,
2013-01-16 13:23:00,18.0,0.0,-100.00,WNW,300,7.0,14.0,41,0.00,,,0.00,,2013-01-16 19:23:00,
2013-01-16 13:33:00,19.0,-4.0,-100.00,NNW,330,9.0,17.0,35,0.00,,,0.00,,2013-01-16 19:33:00,
2013-01-16 13:42:00,18.0,-6.0,-100.00,NW,325,10.0,17.0,33,0.00,,,0.00,,2013-01-16 19:42:00,
2013-01-16 13:52:00,18.0,-6.0,-100.00,NW,325,10.0,17.0,33,0.00,,,0.00,,2013-01-16 19:52:00,
2013-01-16 14:03:00,19.0,-6.0,-100.00,WNW,300,9.0,15.0,32,0.00,,,0.00,,2013-01-16 20:03:00,
2013-01-16 14:12:00,18.0,-8.0,-100.00,NW,320,8.0,16.0,30,0.00,,,0.00,,2013-01-16 20:12:00,
2013-01-16 14:23:00,17.0,-9.0,-100.00,NW,315,11.0,19.0,28,0.00,,,0.00,,2013-01-16 20:23:00,
2013-01-16 14:33:00,17.0,-11.0,-100.00,NW,315,6.0,19.0,27,0.00,,,0.00,,2013-01-16 20:33:00,
2013-01-16 14:42:00,17.0,-11.0,-100.00,WNW,295,9.0,19.0,26,0.00,,,0.00,,2013-01-16 20:42:00,
2013-01-16 14:53:00,16.0,-13.0,-100.00,NW,310,7.0,17.0,26,0.00,,,0.00,,2013-01-16 20:53:00,
2013-01-16 15:02:00,15.0,-13.0,-100.00,NW,310,7.0,17.0,26,0.00,,,0.00,,2013-01-16 21:02:00,
2013-01-16 15:12:00,15.0,-13.0,-100.00,NW,305,5.0,13.0,26,0.00,,,0.00,,2013-01-16 21:12:00,
2013-01-16 15:22:00,15.0,-15.0,-100.00,NW,315,9.0,16.0,24,0.00,,,0.00,,2013-01-16 21:22:00,
2013-01-16 15:33:00,15.0,-15.0,-100.00,NW,310,12.0,21.0,24,0.00,,,0.00,,2013-01-16 21:33:00,
2013-01-16 15:43:00,15.0,-15.0,-100.00,NW,310,9.0,16.0,24,0.00,,,0.00,,2013-01-16 21:43:00,
2013-01-16 15:52:00,16.0,-15.0,-100.00,WNW,295,8.0,14.0,24,0.00,,,0.00,,2013-01-16 21:52:00,
2013-01-16 16:02:00,14.0,-17.0,-100.00,NW,315,10.0,17.0,23,0.00,,,0.00,,2013-01-16 22:02:00,
2013-01-16 16:12:00,14.0,-17.0,-100.00,NW,315,6.0,17.0,23,0.00,,,0.00,,2013-01-16 22:12:00,
2013-01-16 16:22:00,14.0,-17.0,-100.00,NW,315,6.0,11.0,24,0.00,,,0.00,,2013-01-16 22:22:00,
2013-01-16 16:33:00,13.0,-17.0,-100.00,NW,315,6.0,12.0,24,0.00,,,0.00,,2013-01-16 22:33:00,
2013-01-16 16:43:00,12.0,-17.0,-100.00,WNW,290,7.0,14.0,25,0.00,,,0.00,,2013-01-16 22:43:00,
2013-01-16 16:52:00,11.0,-17.0,-100.00,WNW,295,7.0,12.0,25,0.00,,,0.00,,2013-01-16 22:52:00,
2013-01-16 17:02:00,11.0,-17.0,-100.00,NW,310,7.0,12.0,26,0.00,,,0.00,,2013-01-16 23:02:00,
2013-01-16 17:12:00,10.0,-17.0,-100.00,NW,310,9.0,14.0,26,0.00,,,0.00,,2013-01-16 23:12:00,
2013-01-16 17:22:00,9.0,-18.0,-100.00,WNW,300,7.0,16.0,27,0.00,,,0.00,,2013-01-16 23:22:00,
2013-01-16 17:32:00,8.0,-18.0,-100.00,WNW,295,9.0,14.0,27,0.00,,,0.00,,2013-01-16 23:32:00,
2013-01-16 17:42:00,8.0,-18.0,-100.00,NW,310,9.0,16.0,28,0.00,,,0.00,,2013-01-16 23:42:00,
2013-01-16 17:52:00,8.0,-18.0,-100.00,NW,315,9.0,16.0,29,0.00,,,0.00,,2013-01-16 23:52:00,
2013-01-16 18:02:00,7.0,-18.0,-100.00,NW,315,6.0,14.0,29,0.00,,,0.00,,2013-01-17 00:02:00,
2013-01-16 18:12:00,6.0,-18.0,-100.00,NW,325,7.0,15.0,29,0.00,,,0.00,,2013-01-17 00:12:00,
2013-01-16 18:22:00,6.0,-18.0,-100.00,NW,325,9.0,16.0,29,0.00,,,0.00,,2013-01-17 00:22:00,
2013-01-16 18:32:00,6.0,-18.0,-100.00,NW,310,6.0,14.0,30,0.00,,,0.00,,2013-01-17 00:32:00,
2013-01-16 18:42:00,5.0,-18.0,-100.00,NW,305,8.0,14.0,30,0.00,,,0.00,,2013-01-17 00:42:00,
2013-01-16 18:52:00,4.0,-20.0,-100.00,North,0,3.0,9.0,31,0.00,,,0.00,,2013-01-17 00:52:00,
2013-01-16 19:02:00,4.0,-20.0,-100.00,NNW,340,5.0,9.0,31,0.00,,,0.00,,2013-01-17 01:02:00,
2013-01-16 19:12:00,4.0,-20.0,-100.00,NW,315,3.0,9.0,32,0.00,,,0.00,,2013-01-17 01:12:00,
2013-01-16 19:22:00,2.0,-20.0,-100.00,NW,315,4.0,6.0,33,0.00,,,0.00,,2013-01-17 01:22:00,
2013-01-16 19:32:00,2.0,-20.0,-100.00,WNW,300,6.0,9.0,34,0.00,,,0.00,,2013-01-17 01:32:00,
2013-01-16 19:42:00,2.0,-18.0,-100.00,NW,305,6.0,11.0,35,0.00,,,0.00,,2013-01-17 01:42:00,
2013-01-16 19:52:00,2.0,-18.0,-100.00,NW,305,7.0,11.0,35,0.00,,,0.00,,2013-01-17 01:52:00,
2013-01-16 20:02:00,2.0,-18.0,-100.00,NW,320,6.0,14.0,36,0.00,,,0.00,,2013-01-17 02:02:00,
2013-01-16 20:12:00,1.0,-18.0,-100.00,NW,310,5.0,11.0,36,0.00,,,0.00,,2013-01-17 02:12:00,
2013-01-16 20:22:00,1.0,-18.0,-100.00,NNW,330,2.0,8.0,37,0.00,,,0.00,,2013-01-17 02:22:00,
2013-01-16 20:32:00,0.0,-18.0,-100.00,WNW,295,2.0,7.0,38,0.00,,,0.00,,2013-01-17 02:32:00,
2013-01-16 20:42:00,0.0,-18.0,-100.00,WNW,295,2.0,7.0,38,0.00,,,0.00,,2013-01-17 02:42:00,
2013-01-16 20:52:00,0.0,-18.0,-100.00,WNW,295,2.0,7.0,38,0.00,,,0.00,,2013-01-17 02:52:00,
2013-01-16 21:02:00,0.0,-18.0,-100.00,NW,310,4.0,9.0,41,0.00,,,0.00,,2013-01-17 03:02:00,
2013-01-16 21:12:00,0.0,-18.0,-100.00,NW,315,4.0,7.0,41,0.00,,,0.00,,2013-01-17 03:12:00,
2013-01-16 21:22:00,0.0,-17.0,-100.00,NW,320,6.0,10.0,43,0.00,,,0.00,,2013-01-17 03:22:00,
2013-01-16 21:32:00,0.0,-17.0,-100.00,NW,305,7.0,12.0,43,0.00,,,0.00,,2013-01-17 03:32:00,
2013-01-16 21:42:00,0.0,-17.0,-100.00,WNW,300,6.0,10.0,44,0.00,,,0.00,,2013-01-17 03:42:00,
2013-01-16 21:52:00,0.0,-17.0,-100.00,WNW,300,4.0,10.0,44,0.00,,,0.00,,2013-01-17 03:52:00,
2013-01-16 22:02:00,0.0,-17.0,-100.00,NW,305,3.0,7.0,44,0.00,,,0.00,,2013-01-17 04:02:00,
2013-01-16 22:12:00,0.0,-17.0,-100.00,WNW,295,6.0,9.0,45,0.00,,,0.00,,2013-01-17 04:12:00,
2013-01-16 22:22:00,0.0,-17.0,-100.00,WNW,285,4.0,9.0,46,0.00,,,0.00,,2013-01-17 04:22:00,
2013-01-16 22:32:00,0.0,-17.0,-100.00,WNW,300,7.0,13.0,47,0.00,,,0.00,,2013-01-17 04:32:00,
2013-01-16 22:42:00,0.0,-17.0,-100.00,WNW,290,5.0,12.0,47,0.00,,,0.00,,2013-01-17 04:42:00,
2013-01-16 22:52:00,-1.0,-17.0,-100.00,WNW,295,4.0,10.0,47,0.00,,,0.00,,2013-01-17 04:52:00,
2013-01-16 23:04:00,-1.0,-15.0,-100.00,West,275,4.0,7.0,48,0.00,,,0.00,,2013-01-17 05:04:00,
2013-01-16 23:12:00,-1.0,-17.0,-100.00,WNW,295,3.0,7.0,48,0.00,,,0.00,,2013-01-17 05:12:00,
2013-01-16 23:22:00,-1.0,-17.0,-100.00,NW,305,4.0,7.0,48,0.00,,,0.00,,2013-01-17 05:22:00,
2013-01-16 23:32:00,-2.0,-17.0,-100.00,NW,305,4.0,7.0,49,0.00,,,0.00,,2013-01-17 05:32:00,
2013-01-16 23:42:00,-2.0,-17.0,-100.00,NW,315,4.0,6.0,49,0.00,,,0.00,,2013-01-17 05:42:00,
2013-01-16 23:52:00,-1.0,-17.0,-100.00,West,275,3.0,6.0,49,0.00,,,0.00,,2013-01-17 05:52:00,